Tracking 19832 objects as of 26-Aug-2019
HD Live streaming from Space Station
objects crossing your sky now

ARIANE 5 DEB (SYLDA)

Track ARIANE 5 DEB (SYLDA) now!
10-day predictions


NORAD ID: 40943
Int'l Code: 2015-054D
Perigee: 183.0 km
Apogee: 19,314.6 km
Inclination: 6.4 °
Period: 339.5 minutes
Semi major axis: 16119 km
RCS: Unknown
Launch date: September 30, 2015
Source: France (FR)
Launch site: FRENCH GUIANA (FRGUI)

Note: This is SATELLITE DEBRIS
aabbcc
Your satellite tracking list
Your tracking list is empty




NASA's NSSDC Master Catalog

Two Line Element Set (TLE):
1 40943U 15054D   19237.64967568  .00251855 -55873-6  35902-2 0  9990
2 40943   6.3816 264.0902 5934186 280.7654  21.1195  4.24192787 47810
Source of the keplerian elements: AFSPC